| time (UTC) | temp F | wind direction | speed MPH | gust MPH | rain 1hr in | rain 24hr in | rain mn in | humidity % | barometer mb |
| 20260505080010 | 55 | 0 | 0.0 | 0.0 | 0.01 | 0.01 | 0.01 | 97 | 1010.7 |
| 20260505075511 | 55 | 0 | 0.0 | 0.0 | 0.01 | 0.01 | 0.01 | 97 | 1010.7 |
| 20260505075010 | 55 | 0 | 0.0 | 0.0 | 0.01 | 0.01 | 0.01 | 97 | 1010.6 |
| 20260505074510 | 55 | 0 | 0.0 | 0.0 | 0.01 | 0.01 | 0.01 | 96 | 1010.6 |
| 20260505074011 | 55 | 0 | 0.0 | 0.0 | 0.01 | 0.01 | 0.01 | 96 | 1010.6 |
| 20260505073510 | 55 | 0 | 0.0 | 0.0 | 0.01 | 0.01 | 0.01 | 96 | 1010.6 |
| 20260505073010 | 55 | 0 | 0.0 | 0.0 | 0.01 | 0.01 | 0.01 | 96 | 1010.5 |
| 20260505072510 | 55 | 0 | 0.0 | 0.0 | 0.01 | 0.01 | 0.01 | 96 | 1010.6 |
| 20260505072011 | 55 | 0 | 0.0 | 0.0 | 0.01 | 0.01 | 0.01 | 96 | 1010.5 |
| 20260505071510 | 55 | 0 | 0.0 | 0.0 | 0.01 | 0.01 | 0.01 | 96 | 1010.5 |
| 20260505071010 | 55 | 0 | 0.0 | 0.0 | 0.01 | 0.01 | 0.01 | 96 | 1010.5 |
| 20260505070510 | 55 | 0 | 0.0 | 0.0 | 0.00 | 0.01 | 0.01 | 96 | 1010.6 |
| 20260505070010 | 55 | 0 | 0.0 | 0.0 | 0.00 | 0.00 | 0.00 | 96 | 1010.6 |
| 20260505065510 | 55 | 0 | 0.0 | 0.0 | 0.00 | 0.00 | 0.00 | 96 | 1010.7 |
| 20260505065011 | 55 | 0 | 0.0 | 0.0 | 0.00 | 0.00 | 0.00 | 96 | 1010.7 |
| 20260505064510 | 55 | 0 | 0.0 | 0.0 | 0.00 | 0.00 | 0.00 | 96 | 1010.7 |
| 20260505064012 | 55 | 0 | 0.0 | 0.0 | 0.00 | 0.00 | 0.00 | 96 | 1010.7 |
| 20260505063511 | 55 | 0 | 0.0 | 0.0 | 0.00 | 0.00 | 0.00 | 96 | 1010.7 |
| 20260505063010 | 55 | 0 | 0.0 | 0.0 | 0.00 | 0.00 | 0.00 | 96 | 1010.7 |
| 20260505062510 | 55 | 0 | 0.0 | 0.0 | 0.00 | 0.00 | 0.00 | 96 | 1010.6 |
| 20260505062011 | 55 | 0 | 0.0 | 0.0 | 0.00 | 0.00 | 0.00 | 96 | 1010.6 |
| 20260505061511 | 55 | 0 | 0.0 | 0.0 | 0.00 | 0.00 | 0.00 | 96 | 1010.6 |
| 20260505061010 | 55 | 0 | 0.0 | 0.0 | 0.00 | 0.00 | 0.00 | 96 | 1010.7 |
| 20260505060510 | 55 | 0 | 0.0 | 0.0 | 0.00 | 0.00 | 0.00 | 96 | 1010.6 |
| 20260505060010 | 55 | 0 | 0.0 | 0.0 | 0.00 | 0.00 | 0.00 | 96 | 1010.7 |
| 20260505055510 | 55 | 0 | 0.0 | 0.0 | 0.00 | 0.00 | 0.00 | 95 | 1010.7 |
| 20260505055010 | 55 | 0 | 0.0 | 0.0 | 0.00 | 0.00 | 0.00 | 95 | 1010.7 |
| 20260505054510 | 55 | 0 | 0.0 | 0.0 | 0.00 | 0.00 | 0.00 | 95 | 1010.7 |
| 20260505054012 | 55 | 0 | 0.0 | 0.0 | 0.00 | 0.00 | 0.00 | 95 | 1010.7 |
| 20260505053510 | 56 | 0 | 0.0 | 0.0 | 0.00 | 0.00 | 0.00 | 95 | 1010.7 |
| 20260505053011 | 56 | 0 | 0.0 | 0.0 | 0.00 | 0.00 | 0.00 | 95 | 1010.7 |
| 20260505052510 | 56 | 0 | 0.0 | 0.0 | 0.00 | 0.00 | 0.00 | 95 | 1010.7 |
| 20260505052010 | 56 | 0 | 0.0 | 0.0 | 0.00 | 0.00 | 0.00 | 95 | 1010.7 |
| 20260505051510 | 56 | 0 | 0.0 | 0.0 | 0.00 | 0.00 | 0.00 | 95 | 1010.8 |
| 20260505051010 | 56 | 0 | 0.0 | 6.0 | 0.00 | 0.00 | 0.00 | 95 | 1010.7 |
| 20260505050510 | 56 | 205 | 0.0 | 6.0 | 0.00 | 0.00 | 0.00 | 94 | 1010.8 |
| 20260505041510 | 56 | 0 | 0.0 | 5.0 | 0.00 | 0.00 | 0.00 | 91 | 1010.4 |
| 20260505041010 | 56 | 0 | 0.0 | 5.0 | 0.00 | 0.00 | 0.00 | 91 | 1010.3 |
| 20260505040510 | 56 | 217 | 0.0 | 5.0 | 0.00 | 0.00 | 0.00 | 90 | 1010.3 |
| 20260505040010 | 56 | 245 | 1.0 | 9.0 | 0.00 | 0.00 | 0.00 | 90 | 1010.2 |
| 20260505035512 | 57 | 211 | 2.0 | 9.0 | 0.00 | 0.00 | 0.00 | 90 | 1010.2 |
| 20260505035010 | 57 | 271 | 0.0 | 9.0 | 0.00 | 0.00 | 0.00 | 89 | 1010.2 |
| 20260505034510 | 57 | 170 | 0.0 | 5.0 | 0.00 | 0.00 | 0.00 | 88 | 1010.1 |
| 20260505034010 | 57 | 170 | 0.0 | 5.0 | 0.00 | 0.00 | 0.00 | 88 | 1010.0 |
| 20260505033510 | 57 | 0 | 0.0 | 0.0 | 0.00 | 0.00 | 0.00 | 87 | 1010.0 |
| 20260505033010 | 57 | 0 | 0.0 | 3.0 | 0.00 | 0.00 | 0.00 | 87 | 1009.9 |
| 20260505032510 | 57 | 0 | 0.0 | 3.0 | 0.00 | 0.00 | 0.00 | 87 | 1009.8 |
| 20260505032011 | 57 | 117 | 0.0 | 3.0 | 0.00 | 0.00 | 0.00 | 87 | 1009.8 |
| 20260505031510 | 57 | 0 | 0.0 | 6.0 | 0.00 | 0.00 | 0.00 | 86 | 1009.7 |
| 20260505031011 | 57 | 0 | 0.0 | 6.0 | 0.00 | 0.00 | 0.00 | 86 | 1009.7 |
| 20260505030510 | 57 | 204 | 0.0 | 6.0 | 0.00 | 0.00 | 0.00 | 86 | 1009.7 |
| 20260505030010 | 57 | 0 | 0.0 | 0.0 | 0.00 | 0.00 | 0.00 | 85 | 1009.7 |
| 20260505025510 | 57 | 0 | 0.0 | 0.0 | 0.00 | 0.00 | 0.00 | 85 | 1009.7 |
| 20260505025010 | 57 | 0 | 0.0 | 7.0 | 0.00 | 0.00 | 0.00 | 84 | 1009.6 |
| 20260505024510 | 57 | 0 | 0.0 | 7.0 | 0.00 | 0.00 | 0.00 | 84 | 1009.6 |
| 20260505024010 | 57 | 186 | 0.0 | 7.0 | 0.00 | 0.00 | 0.00 | 85 | 1009.6 |
| 20260505023510 | 57 | 205 | 1.0 | 6.0 | 0.00 | 0.00 | 0.00 | 84 | 1009.7 |
| 20260505023011 | 57 | 225 | 0.0 | 6.0 | 0.00 | 0.00 | 0.00 | 84 | 1009.7 |
| 20260505022510 | 57 | 204 | 1.0 | 5.0 | 0.00 | 0.00 | 0.00 | 84 | 1009.8 |
| 20260505022010 | 58 | 189 | 0.0 | 8.0 | 0.00 | 0.00 | 0.00 | 83 | 1009.8 |
| 20260505021510 | 58 | 204 | 1.0 | 8.0 | 0.00 | 0.00 | 0.00 | 83 | 1009.9 |
| 20260505021011 | 58 | 264 | 1.0 | 8.0 | 0.00 | 0.00 | 0.00 | 82 | 1009.9 |
| 20260505020510 | 58 | 186 | 0.0 | 8.0 | 0.00 | 0.00 | 0.00 | 81 | 1009.9 |
| 20260505015510 | 58 | 303 | 0.0 | 8.0 | 0.00 | 0.00 | 0.00 | 80 | 1009.9 |
| 20260505015010 | 58 | 212 | 3.0 | 8.0 | 0.00 | 0.00 | 0.00 | 80 | 1009.8 |
| 20260505014512 | 59 | 180 | 3.0 | 6.0 | 0.00 | 0.00 | 0.00 | 80 | 1009.9 |
| 20260505014010 | 59 | 207 | 2.0 | 6.0 | 0.00 | 0.00 | 0.00 | 79 | 1009.8 |
| 20260505013510 | 59 | 197 | 3.0 | 13.0 | 0.00 | 0.00 | 0.00 | 79 | 1009.8 |
| 20260505013010 | 59 | 218 | 4.0 | 13.0 | 0.00 | 0.00 | 0.00 | 78 | 1009.9 |
| 20260505012510 | 59 | 210 | 6.0 | 13.0 | 0.00 | 0.00 | 0.00 | 78 | 1009.9 |
| 20260505012010 | 59 | 252 | 3.0 | 11.0 | 0.00 | 0.00 | 0.00 | 78 | 1010.0 |
| 20260505011510 | 59 | 207 | 7.0 | 12.0 | 0.00 | 0.00 | 0.00 | 78 | 1010.0 |
| 20260505011011 | 60 | 267 | 5.0 | 12.0 | 0.00 | 0.00 | 0.00 | 77 | 1010.1 |
| 20260505010510 | 60 | 273 | 6.0 | 12.0 | 0.00 | 0.00 | 0.00 | 77 | 1010.2 |
| 20260505010010 | 60 | 184 | 7.0 | 10.0 | 0.00 | 0.00 | 0.00 | 77 | 1010.1 |
| 20260505005604 | 60 | 271 | 4.0 | 11.0 | 0.00 | 0.00 | 0.00 | 78 | 1010.0 |
| 20260505005512 | 60 | 271 | 4.0 | 11.0 | 0.00 | 0.00 | 0.00 | 78 | 1010.0 |
| 20260505005010 | 60 | 204 | 6.0 | 11.0 | 0.00 | 0.00 | 0.00 | 77 | 1010.0 |
| 20260505004510 | 60 | 282 | 4.0 | 11.0 | 0.00 | 0.00 | 0.00 | 78 | 1010.0 |
| 20260505004010 | 60 | 281 | 5.0 | 11.0 | 0.00 | 0.00 | 0.00 | 77 | 1010.1 |
| 20260505003510 | 60 | 291 | 5.0 | 11.0 | 0.00 | 0.00 | 0.00 | 78 | 1010.1 |
| 20260505002510 | 61 | 256 | 5.0 | 10.0 | 0.00 | 0.00 | 0.00 | 77 | 1010.2 |
| 20260505002010 | 61 | 260 | 4.0 | 12.0 | 0.00 | 0.00 | 0.00 | 77 | 1010.2 |
| 20260505001510 | 61 | 191 | 3.0 | 12.0 | 0.00 | 0.00 | 0.00 | 78 | 1010.2 |
| 20260505001010 | 61 | 207 | 5.0 | 12.0 | 0.00 | 0.00 | 0.00 | 77 | 1010.3 |
| 20260505000510 | 61 | 194 | 6.0 | 10.0 | 0.00 | 0.00 | 0.00 | 77 | 1010.4 |
| 20260505000010 | 61 | 257 | 5.0 | 14.0 | 0.00 | 0.00 | 0.00 | 77 | 1010.5 |
| 20260504235510 | 61 | 267 | 5.0 | 14.0 | 0.00 | 0.00 | 0.00 | 77 | 1010.5 |
| 20260504235010 | 61 | 280 | 5.0 | 14.0 | 0.00 | 0.00 | 0.00 | 77 | 1010.5 |
| 20260504234510 | 61 | 252 | 5.0 | 11.0 | 0.00 | 0.00 | 0.00 | 78 | 1010.5 |
| 20260504234010 | 61 | 217 | 6.0 | 11.0 | 0.00 | 0.00 | 0.00 | 77 | 1010.5 |
| 20260504233510 | 61 | 308 | 6.0 | 10.0 | 0.00 | 0.00 | 0.00 | 78 | 1010.5 |
| 20260504233010 | 61 | 312 | 4.0 | 10.0 | 0.00 | 0.00 | 0.00 | 78 | 1010.5 |
| 20260504232512 | 61 | 242 | 6.0 | 10.0 | 0.00 | 0.00 | 0.00 | 77 | 1010.5 |
| 20260504232010 | 61 | 198 | 5.0 | 14.0 | 0.00 | 0.00 | 0.00 | 77 | 1010.4 |
| 20260504231510 | 61 | 266 | 4.0 | 14.0 | 0.00 | 0.00 | 0.00 | 77 | 1010.4 |
| 20260504231010 | 62 | 261 | 4.0 | 14.0 | 0.00 | 0.00 | 0.00 | 77 | 1010.5 |
| 20260504230511 | 62 | 256 | 5.0 | 13.0 | 0.00 | 0.00 | 0.00 | 77 | 1010.5 |
| 20260504230010 | 62 | 236 | 5.0 | 13.0 | 0.00 | 0.00 | 0.00 | 75 | 1010.4 |
| 20260504225512 | 62 | 263 | 6.0 | 14.0 | 0.00 | 0.00 | 0.00 | 74 | 1010.4 |
| 20260504225010 | 62 | 259 | 7.0 | 14.0 | 0.00 | 0.00 | 0.00 | 74 | 1010.4 |
| 20260504224511 | 62 | 208 | 7.0 | 14.0 | 0.00 | 0.00 | 0.00 | 74 | 1010.4 |
| 20260504224010 | 62 | 298 | 7.0 | 14.0 | 0.00 | 0.00 | 0.00 | 73 | 1010.5 |
| 20260504223510 | 62 | 266 | 9.0 | 14.0 | 0.00 | 0.00 | 0.00 | 74 | 1010.5 |
| 20260504223010 | 62 | 259 | 7.0 | 15.0 | 0.00 | 0.00 | 0.00 | 75 | 1010.5 |
| 20260504222510 | 62 | 245 | 8.0 | 15.0 | 0.00 | 0.00 | 0.00 | 74 | 1010.6 |
| 20260504222010 | 62 | 232 | 8.0 | 15.0 | 0.00 | 0.00 | 0.00 | 75 | 1010.6 |
| 20260504221510 | 63 | 231 | 7.0 | 14.0 | 0.00 | 0.00 | 0.00 | 75 | 1010.6 |
| 20260504221010 | 63 | 250 | 6.0 | 12.0 | 0.00 | 0.00 | 0.00 | 76 | 1010.7 |
| 20260504220510 | 63 | 256 | 7.0 | 12.0 | 0.00 | 0.00 | 0.00 | 75 | 1010.6 |
| 20260504220010 | 63 | 239 | 7.0 | 12.0 | 0.00 | 0.00 | 0.00 | 75 | 1010.7 |
| 20260504215510 | 63 | 211 | 6.0 | 15.0 | 0.00 | 0.00 | 0.00 | 76 | 1010.7 |
| 20260504215010 | 63 | 270 | 7.0 | 15.0 | 0.00 | 0.00 | 0.00 | 74 | 1010.7 |
| 20260504214510 | 63 | 246 | 7.0 | 15.0 | 0.00 | 0.00 | 0.00 | 75 | 1010.7 |
| 20260504214010 | 63 | 247 | 5.0 | 14.0 | 0.00 | 0.00 | 0.00 | 75 | 1010.8 |
| 20260504213510 | 63 | 261 | 9.0 | 15.0 | 0.00 | 0.00 | 0.00 | 73 | 1010.8 |
| 20260504213010 | 63 | 250 | 7.0 | 15.0 | 0.00 | 0.00 | 0.00 | 74 | 1010.8 |
| 20260504212510 | 63 | 229 | 7.0 | 15.0 | 0.00 | 0.00 | 0.00 | 76 | 1010.8 |
| 20260504212011 | 63 | 257 | 7.0 | 13.0 | 0.00 | 0.00 | 0.00 | 74 | 1010.8 |
| 20260504211510 | 63 | 245 | 7.0 | 13.0 | 0.00 | 0.00 | 0.00 | 75 | 1010.8 |
| 20260504211010 | 63 | 254 | 7.0 | 13.0 | 0.00 | 0.00 | 0.00 | 75 | 1010.8 |
| 20260504210510 | 63 | 224 | 8.0 | 14.0 | 0.00 | 0.00 | 0.00 | 74 | 1010.9 |
| 20260504210009 | 63 | 287 | 6.0 | 14.0 | 0.00 | 0.00 | 0.00 | 77 | 1010.9 |
| 20260504205511 | 62 | 268 | 9.0 | 14.0 | 0.00 | 0.00 | 0.00 | 78 | 1010.9 |
| 20260504205010 | 62 | 236 | 5.0 | 14.0 | 0.00 | 0.00 | 0.00 | 78 | 1011.0 |
| 20260504204510 | 62 | 261 | 6.0 | 14.0 | 0.00 | 0.00 | 0.00 | 78 | 1010.9 |
| 20260504203510 | 61 | 271 | 5.0 | 16.0 | 0.00 | 0.00 | 0.00 | 80 | 1011.0 |
| 20260504203010 | 61 | 266 | 6.0 | 16.0 | 0.00 | 0.00 | 0.00 | 80 | 1011.0 |
| 20260504202509 | 61 | 259 | 5.0 | 16.0 | 0.00 | 0.00 | 0.00 | 80 | 1011.1 |
| 20260504202010 | 61 | 259 | 4.0 | 12.0 | 0.00 | 0.00 | 0.00 | 82 | 1011.0 |
| 20260504201510 | 60 | 243 | 7.0 | 14.0 | 0.00 | 0.00 | 0.00 | 82 | 1011.1 |
| 20260504201009 | 60 | 306 | 6.0 | 14.0 | 0.00 | 0.00 | 0.00 | 82 | 1011.1 |
| 20260504200509 | 60 | 204 | 6.0 | 14.0 | 0.00 | 0.00 | 0.00 | 83 | 1011.1 |
| 20260504200011 | 60 | 246 | 7.0 | 11.0 | 0.00 | 0.00 | 0.00 | 82 | 1011.1 |
| 20260504195509 | 60 | 261 | 4.0 | 11.0 | 0.00 | 0.00 | 0.00 | 83 | 1011.1 |
| 20260504195009 | 59 | 236 | 7.0 | 17.0 | 0.00 | 0.00 | 0.00 | 84 | 1011.0 |
| 20260504194510 | 59 | 225 | 7.0 | 17.0 | 0.00 | 0.00 | 0.00 | 84 | 1011.0 |
| 20260504194009 | 59 | 224 | 7.0 | 17.0 | 0.00 | 0.00 | 0.00 | 84 | 1011.1 |
| 20260504193510 | 59 | 287 | 5.0 | 11.0 | 0.00 | 0.00 | 0.00 | 84 | 1011.0 |
| 20260504193011 | 59 | 252 | 4.0 | 13.0 | 0.00 | 0.00 | 0.00 | 84 | 1010.9 |
| 20260504192510 | 60 | 259 | 4.0 | 13.0 | 0.00 | 0.00 | 0.00 | 84 | 1011.0 |
| 20260504192009 | 59 | 274 | 6.0 | 13.0 | 0.00 | 0.00 | 0.00 | 84 | 1010.9 |
| 20260504191510 | 59 | 221 | 6.0 | 11.0 | 0.00 | 0.00 | 0.00 | 85 | 1010.9 |
| 20260504191009 | 59 | 298 | 7.0 | 12.0 | 0.00 | 0.00 | 0.00 | 84 | 1010.9 |
| 20260504190509 | 60 | 246 | 7.0 | 12.0 | 0.00 | 0.00 | 0.00 | 84 | 1010.9 |
| 20260504190009 | 59 | 264 | 7.0 | 12.0 | 0.00 | 0.00 | 0.00 | 84 | 1010.9 |
| 20260504185509 | 59 | 268 | 6.0 | 10.0 | 0.00 | 0.00 | 0.00 | 85 | 1010.9 |
| 20260504185010 | 59 | 243 | 5.0 | 10.0 | 0.00 | 0.00 | 0.00 | 86 | 1010.9 |
| 20260504184510 | 59 | 249 | 5.0 | 13.0 | 0.00 | 0.00 | 0.00 | 87 | 1010.9 |
| 20260504184010 | 59 | 249 | 4.0 | 13.0 | 0.00 | 0.00 | 0.00 | 87 | 1010.9 |
| 20260504183509 | 59 | 212 | 4.0 | 13.0 | 0.00 | 0.00 | 0.00 | 88 | 1010.9 |
| 20260504183009 | 59 | 191 | 6.0 | 12.0 | 0.00 | 0.00 | 0.00 | 87 | 1010.8 |
| 20260504182509 | 58 | 214 | 6.0 | 12.0 | 0.00 | 0.00 | 0.00 | 88 | 1010.7 |
| 20260504182009 | 58 | 170 | 3.0 | 12.0 | 0.00 | 0.00 | 0.00 | 88 | 1010.7 |
| 20260504181510 | 58 | 194 | 5.0 | 9.0 | 0.00 | 0.00 | 0.00 | 88 | 1010.6 |
| 20260504181009 | 58 | 240 | 4.0 | 9.0 | 0.00 | 0.00 | 0.00 | 89 | 1010.7 |
| 20260504180509 | 58 | 203 | 3.0 | 10.0 | 0.00 | 0.00 | 0.00 | 89 | 1010.6 |
| 20260504180009 | 58 | 187 | 4.0 | 10.0 | 0.00 | 0.00 | 0.00 | 90 | 1010.6 |
| 20260504175509 | 58 | 261 | 5.0 | 10.0 | 0.00 | 0.00 | 0.00 | 90 | 1010.5 |
| 20260504175010 | 58 | 200 | 1.0 | 10.0 | 0.00 | 0.00 | 0.00 | 90 | 1010.5 |
| 20260504174509 | 58 | 233 | 3.0 | 7.0 | 0.00 | 0.00 | 0.00 | 90 | 1010.5 |
| 20260504174010 | 58 | 194 | 5.0 | 7.0 | 0.00 | 0.00 | 0.00 | 92 | 1010.6 |
| 20260504173510 | 58 | 224 | 1.0 | 7.0 | 0.00 | 0.00 | 0.00 | 92 | 1010.6 |
| 20260504173009 | 57 | 260 | 1.0 | 7.0 | 0.00 | 0.00 | 0.00 | 93 | 1010.5 |
| 20260504172510 | 57 | 242 | 0.0 | 7.0 | 0.00 | 0.00 | 0.00 | 94 | 1010.6 |
| 20260504172009 | 57 | 198 | 0.0 | 9.0 | 0.00 | 0.00 | 0.00 | 94 | 1010.5 |
| 20260504171509 | 57 | 173 | 2.0 | 9.0 | 0.00 | 0.00 | 0.00 | 94 | 1010.5 |
| 20260504171009 | 57 | 315 | 0.0 | 9.0 | 0.00 | 0.00 | 0.00 | 95 | 1010.5 |
| 20260504170509 | 57 | 247 | 0.0 | 10.0 | 0.00 | 0.00 | 0.00 | 95 | 1010.4 |
| 20260504151009 | 56 | 0 | 0.0 | 0.0 | 0.00 | 0.00 | 0.00 | 96 | 1010.1 |
| 20260504150509 | 56 | 0 | 0.0 | 2.0 | 0.00 | 0.00 | 0.00 | 96 | 1010.1 |
| 20260504141009 | 55 | 0 | 0.0 | 0.0 | 0.00 | 0.00 | 0.00 | 95 | 1009.5 |
| 20260504140509 | 55 | 0 | 0.0 | 2.0 | 0.00 | 0.00 | 0.00 | 95 | 1009.4 |
| 20260504130509 | 55 | 198 | 0.0 | 5.0 | 0.00 | 0.00 | 0.00 | 95 | 1008.9 |
| 20260504110509 | 55 | 0 | 0.0 | 0.0 | 0.00 | 0.00 | 0.00 | 96 | 1008.9 |
| 20260504100509 | 55 | 0 | 0.0 | 0.0 | 0.00 | 0.00 | 0.00 | 96 | 1008.7 |
| 20260504081509 | 56 | 0 | 0.0 | 0.0 | 0.00 | 0.00 | 0.00 | 95 | 1008.6 |
| 20260504081009 | 56 | 0 | 0.0 | 0.0 | 0.00 | 0.00 | 0.00 | 94 | 1008.5 |
| 20260504080509 | 56 | 0 | 0.0 | 0.0 | 0.00 | 0.00 | 0.00 | 94 | 1008.4 |